1998-067KZ

Last updated on Jan. 26, 2017, 12:15 a.m. UTC

1 41939U 98067KZ  17025.21642555  .00020528  00000-0  30284-3 0  9998
2 41939  51.6427  30.9814 0010108  96.1422 264.0718 15.55295648   617

Satellite is not in orbit.